Retour au catalogue

COSMOS 1285 DEB

LostHEO
NORAD 25838·DEBRIS·🇷🇺 Russia

Lancé Aug 4, 1981 depuis Plesetsk Cosmodrome

Loading…

Prochains Passages (prochaines 24 heures)

TLE

PériméSource: Space-Track

Époque: Aug 18, 2025, 07:16 UTC

1 25838U 81071G   25230.30322652  .00000399  00000-0  00000+0 0  9998
2 25838  67.9573  98.7936 6249193   0.3044   0.1173  1.98221688196140

Suivez COSMOS 1285 DEB en temps réel avec AllMySat

Download on the App Store